Weather History for Staunton, VA

Change the Weather History Date:

Sunday, May 26, 2013

  Actual Average Record
Temperature  
Mean Temperature 58 °F -  
Max Temperature 75 °F 75 °F 89 °F (2002)
Min Temperature 40 °F 53 °F 40 °F (2013)
Degree Days  
Heating Degree Days 8    
Growing Degree Days 8 (Base 50)    
Moisture  
Dew Point 35 °F    
Average Humidity 50    
Maximum Humidity 88    
Minimum Humidity 13    
Precipitation  
Precipitation 0.00 in - - ()
Sea Level Pressure  
Sea Level Pressure 30.23 in    
Wind  
Wind Speed 1 mph (NE)    
Max Wind Speed 9 mph    
Max Gust Speed -    
Visibility 10 miles    
Events      
Averages and records for this station are not official NWS values.
T = Trace of Precipitation, MM = Missing Value Source: NWS Daily Summary

Daily Weather History Graph

Daily Weather History Graph

Search for Another Location

Airport:

Trip Planner

Search our weather history database for the weather conditions in past years. The results will help you decide how hot, cold, wet, or windy it might be!

Date:

Astronomy

May. 26, 2013 Rise Set
Actual Time 5:56 AM EDT 8:29 PM EDT
Civil Twilight 5:26 AM EDT 8:59 PM EDT
Nautical Twilight 4:48 AM EDT 9:37 PM EDT
Astronomical Twilight 4:05 AM EDT 10:20 PM EDT
Moon 10:15 PM EDT (5/26) 7:23 AM EDT (5/26)
Length of Visible Light 15h 33m
Length of Day
14h 32m
Waning Gibbous, 97% of the Moon is Illuminated
May 26
Waning Gibbous
May 31
Last Quarter
Jun 8
New
Jun 16
First Quarter
Jun 23
Full

Hourly Weather History & Observations

Time (EDT) Temp. Windchill Dew Point Humidity Pressure Visibility Wind Dir Wind Speed Gust Speed Precip Events Conditions
12:15 AM 47.1 °F - 39.0 °F 73% 30.23 in 10.0 mi Calm Calm - N/A   Clear
12:35 AM 46.2 °F - 39.2 °F 76% 30.23 in 10.0 mi Calm Calm - N/A   Clear
12:55 AM 45.7 °F - 38.5 °F 76% 30.24 in 10.0 mi Calm Calm - N/A   Clear
1:15 AM 45.0 °F - 38.1 °F 77% 30.24 in 10.0 mi Calm Calm - N/A   Clear
1:35 AM 43.9 °F - 37.9 °F 80% 30.24 in 10.0 mi Calm Calm - N/A   Clear
1:55 AM 45.5 °F - 37.9 °F 75% 30.24 in 10.0 mi Calm Calm - N/A   Clear
2:15 AM 45.1 °F - 38.1 °F 76% 30.23 in 10.0 mi Calm Calm - N/A   Clear
2:35 AM 46.2 °F - 38.1 °F 73% 30.23 in 10.0 mi Calm Calm - N/A   Clear
2:55 AM 47.3 °F - 38.3 °F 71% 30.22 in 10.0 mi Calm Calm - N/A   Clear
3:15 AM 45.0 °F - 37.9 °F 76% 30.23 in 10.0 mi Calm Calm - N/A   Clear
3:35 AM 43.0 °F 41.3 °F 38.1 °F 83% 30.23 in 10.0 mi South 3.5 mph - N/A   Clear
3:55 AM 44.8 °F - 38.1 °F 77% 30.23 in 10.0 mi Calm Calm - N/A   Clear
4:15 AM 43.3 °F - 37.8 °F 81% 30.22 in 7.0 mi Calm Calm - N/A   Clear
4:35 AM 42.6 °F - 37.6 °F 82% 30.22 in 10.0 mi Calm Calm - N/A   Clear
4:55 AM 42.6 °F 40.9 °F 36.9 °F 80% 30.23 in 10.0 mi SSE 3.5 mph - N/A   Clear
5:15 AM 43.2 °F - 37.6 °F 81% 30.23 in 10.0 mi Calm Calm - N/A   Clear
5:35 AM 42.1 °F - 37.6 °F 84% 30.23 in 10.0 mi Calm Calm - N/A   Clear
5:55 AM 41.9 °F - 37.0 °F 83% 30.24 in 10.0 mi Calm Calm - N/A   Clear
6:15 AM 40.3 °F - 36.5 °F 86% 30.24 in 10.0 mi Calm Calm - N/A   Clear
6:35 AM 41.2 °F - 37.6 °F 87% 30.25 in 4.0 mi Calm Calm - N/A   Clear
6:55 AM 41.0 °F - 37.8 °F 88% 30.25 in 10.0 mi Calm Calm - N/A   Clear
7:15 AM 43.9 °F - 39.9 °F 86% 30.25 in 10.0 mi Calm Calm - N/A   Clear
7:35 AM 46.4 °F - 39.9 °F 78% 30.25 in 5.0 mi Calm Calm - N/A   Haze
7:55 AM 48.4 °F - 41.2 °F 76% 30.26 in 3.0 mi Calm Calm - N/A   Haze
8:15 AM 50.7 °F - 41.5 °F 71% 30.26 in 10.0 mi Calm Calm - N/A   Clear
8:35 AM 52.9 °F - 41.9 °F 66% 30.26 in 4.0 mi Calm Calm - N/A   Haze
8:55 AM 54.7 °F - 37.8 °F 53% 30.27 in 10.0 mi Calm Calm - N/A   Clear
9:15 AM 55.6 °F - 38.3 °F 52% 30.28 in 10.0 mi Calm Calm - N/A   Clear
9:35 AM 57.6 °F - 37.6 °F 47% 30.28 in 10.0 mi Calm Calm - N/A   Clear
9:55 AM 58.5 °F - 36.1 °F 43% 30.28 in 10.0 mi East 4.6 mph - N/A   Clear
10:15 AM 60.3 °F - 31.1 °F 33% 30.28 in 10.0 mi NNW 3.5 mph - N/A   Clear
10:35 AM 60.6 °F - 32.0 °F 34% 30.27 in 10.0 mi NNW 3.5 mph - N/A   Clear
10:55 AM 60.8 °F - 31.3 °F 33% 30.27 in 10.0 mi Calm Calm - N/A   Clear
11:15 AM 61.2 °F - 32.4 °F 34% 30.26 in 10.0 mi ENE 3.5 mph - N/A   Clear
11:35 AM 62.4 °F - 32.7 °F 33% 30.27 in 10.0 mi Calm Calm - N/A   Clear
11:55 AM 63.3 °F - 31.6 °F 31% 30.26 in 10.0 mi Calm Calm - N/A   Clear
12:15 PM 64.6 °F - 32.2 °F 30% 30.27 in 10.0 mi Calm Calm - N/A   Clear
12:35 PM 65.3 °F - 32.4 °F 29% 30.25 in 10.0 mi South 3.5 mph - N/A   Clear
12:55 PM 66.0 °F - 32.0 °F 28% 30.24 in 10.0 mi Calm Calm - N/A   Clear
1:15 PM 66.4 °F - 32.4 °F 28% 30.23 in 10.0 mi Calm Calm - N/A   Clear
1:35 PM 67.8 °F - 34.2 °F 29% 30.23 in 10.0 mi South 4.6 mph - N/A   Clear
1:55 PM 67.1 °F - 32.7 °F 28% 30.22 in 10.0 mi Calm Calm - N/A   Clear
2:15 PM 68.2 °F - 32.2 °F 26% 30.21 in 10.0 mi Calm Calm - N/A   Clear
2:35 PM 69.6 °F - 34.9 °F 28% 30.20 in 10.0 mi ESE 5.8 mph - N/A   Clear
2:55 PM 69.1 °F - 31.3 °F 25% 30.20 in 10.0 mi Calm Calm - N/A   Clear
3:15 PM 70.7 °F - 33.3 °F 25% 30.19 in 10.0 mi NE 3.5 mph - N/A   Clear
3:35 PM 71.1 °F - 33.4 °F 25% 30.19 in 10.0 mi ESE 3.5 mph - N/A   Clear
3:55 PM 72.1 °F - 35.1 °F 26% 30.19 in 10.0 mi ESE 4.6 mph - N/A   Clear
4:15 PM 71.8 °F - 32.2 °F 23% 30.18 in 10.0 mi East 3.5 mph - N/A   Clear
4:35 PM 72.7 °F - 32.5 °F 23% 30.18 in 10.0 mi East 5.8 mph - N/A   Clear
4:55 PM 72.5 °F - 30.2 °F 21% 30.17 in 10.0 mi SE 4.6 mph - N/A   Clear
5:15 PM 73.0 °F - 30.6 °F 21% 30.17 in 10.0 mi Calm Calm - N/A   Clear
5:35 PM 73.4 °F - 31.6 °F 22% 30.17 in 10.0 mi NE 3.5 mph - N/A   Clear
5:55 PM 75.2 °F - 21.2 °F 13% 30.17 in 10.0 mi North 9.2 mph - N/A   Clear
6:15 PM 75.2 °F - 23.7 °F 15% 30.17 in 10.0 mi NNW 8.1 mph - N/A   Clear
6:35 PM 73.9 °F - 21.6 °F 14% 30.18 in 10.0 mi North 8.1 mph - N/A   Clear
6:55 PM 73.0 °F - 21.7 °F 15% 30.18 in 10.0 mi North 8.1 mph - N/A   Clear
7:15 PM 70.7 °F - 26.2 °F 19% 30.18 in 10.0 mi NNW 5.8 mph - N/A   Clear
7:35 PM 70.2 °F - 25.7 °F 19% 30.19 in 10.0 mi North 5.8 mph - N/A   Clear
7:55 PM 69.6 °F - 26.8 °F 20% 30.19 in 10.0 mi North 5.8 mph - N/A   Clear
8:15 PM 67.8 °F - 27.9 °F 22% 30.20 in 10.0 mi North 5.8 mph - N/A   Clear
8:35 PM 65.5 °F - 31.1 °F 28% 30.20 in 10.0 mi NNW 3.5 mph - N/A   Clear
8:55 PM 64.4 °F - 30.7 °F 28% 30.21 in 10.0 mi North 3.5 mph - N/A   Clear
9:15 PM 59.5 °F - 33.8 °F 38% 30.22 in 10.0 mi East 3.5 mph - N/A   Clear
9:35 PM 60.3 °F - 32.4 °F 35% 30.23 in 10.0 mi ENE 3.5 mph - N/A   Clear
9:55 PM 55.9 °F - 37.9 °F 51% 30.24 in 10.0 mi Calm Calm - N/A   Clear
10:15 PM 56.3 °F - 38.1 °F 51% 30.25 in 10.0 mi Calm Calm - N/A   Clear
10:35 PM 53.2 °F - 39.7 °F 60% 30.25 in 10.0 mi Calm Calm - N/A   Clear
10:55 PM 51.4 °F - 39.7 °F 64% 30.26 in 10.0 mi Calm Calm - N/A   Clear
11:15 PM 51.6 °F - 40.5 °F 66% 30.26 in 10.0 mi Calm Calm - N/A   Clear
11:35 PM 50.7 °F - 39.7 °F 66% 30.27 in 10.0 mi Calm Calm - N/A   Clear
11:55 PM 49.1 °F - 40.1 °F 71% 30.28 in 10.0 mi Calm Calm - N/A   Clear